COSMOS 2251 DEB, 38486

Orbit data source: Space-Track

COSMOS 2251 DEB, 38486 is space debris in LEO originally from a launch on Wed, 16 Jun 1993 UTC launched from the Plesetsk Missile And Space Complex (PKMTR). The debris from Iridium 33, an American commercial communications satellite, has been tracked extensively since its accidental collision with the defunct Russian satellite Cosmos 2251 in 2009. This event, occurring at high speed in low Earth orbit (LEO), generated thousands of pieces of space debris, significantly increasing the risk of further collisions. The Iridium 33 debris cloud has impacted space traffic management and orbital debris mitigation strategies, making it a subject of ongoing study in space situational awareness.

Loading next visibility...
Identifier
38486, 1993-036BTW
Orbit
LEO
Country
Flag of CISCIS
Related business
Manufacturer
Unknown
Mission
Spacecraft
Bus & Motor
Unknown
Mass
Unknown
Launch date (UTC)
1993-06-16 (33 years ago)
Launch vehicle
Unknown
Launch site
Plesetsk Missile And Space Complex (PKMTR)
Object type
Payload
Rocket body
Debris
Shape & HBR
Unknown shape, 0.1 m
Radar Cross Section
Small (<0.1 m²)

Expand to show TLE details & history
Last TLE update: 21 hours ago

TLE from 21 hours ago
0 COSMOS 2251 DEB
1 38486U 93036BTW 26061.34890227  .00019484  00000-0  27828-2 0  9995
2 38486  73.9396  48.4189 0030894 186.4811 242.4245 14.76329034766084
Epoch: 2026-03-02T08:22Z
TLE epoch observation values (Epoch: 2026-03-02T08:22:25.156Z)
Latitude
63.56894°
Longitude
157.84213°
Altitude
661.607 km
Speed
7.527 km/s
True Right ascension
05h 34m 21s
True Declination
63° 25' 47"
Sunlit
Object was in daylight at epoch
Visualization orbit readout
Latitude
Unknown
Longitude
Unknown
Altitude
Unknown
Speed
Unknown
Apparent Right ascension
Unknown
Apparent Declination
Unknown
Sunlit
N/A
Visualization observer readout
Local Sidereal Time
09:18:34
Azimuth
Unknown
Elevation
Unknown
Doppler factor
Unknown
Orbital elements
Apogee altitude
660.201 km
Perigee altitude
616.846 km
Semi-major axis
7,016.661 km
Eccentricity
0.00309
Inclination
73.9396°
RAAN
48.4189°
Arg. of periapsis
186.4811°
True anomaly
242.11126°
Mean anomaly
242.4245°
Eccentric anomaly
242.26782°
Mean motion
3.69273 °/min
Orbital period
97.49 mins
BSTAR
0.0027828
Loading maneuver chart data...
Computing Atmospheric mass density...

Documentation

Showing up to 5 results
|